Van, Turkey

5:22 AM +03 on April 29, 2017 (GMT +0300)
Van

Weather History for LTCI - March, 2013

Change the Weather History Date:

Saturday, March 9, 2013

  Actual Average Record
Temperature  
Mean Temperature 30 °F -  
Max Temperature 38 °F 47 °F 53 °F (2002)
Min Temperature 23 °F 30 °F 5 °F (1997)
Degree Days  
Heating Degree Days 34    
Moisture  
Dew Point 25 °F    
Average Humidity 75    
Maximum Humidity 93    
Minimum Humidity 53    
Precipitation  
Precipitation 0.00 in 0.06 in - ()
Sea Level Pressure  
Sea Level Pressure 29.98 in    
Wind  
Wind Speed 3 mph ()    
Max Wind Speed 7 mph    
Max Gust Speed -    
Visibility 4.2 miles    
Events      
Averages and records for this station are not official NWS values.
T = Trace of Precipitation, MM = Missing Value Source: Averaged Metar Reports

Daily Weather History Graph

Daily Weather History Graph

Search for Another Location

Airport or City:

Trip Planner

Search our weather history database for the weather conditions in past years. The results will help you decide how hot, cold, wet, or windy it might be!

Date:

Astronomy

Mar. 09, 2013 Rise Set
Actual Time 5:27 AM EET 5:07 PM EET
Civil Twilight 5:00 AM EET 5:34 PM EET
Nautical Twilight 4:30 AM EET 6:04 PM EET
Astronomical Twilight 3:59 AM EET 6:35 PM EET
Moon 3:35 AM EET (3/9) 2:46 PM EET (3/9)
Length of Visible Light 12h 33m
Length of Day
11h 40m
Waning Crescent, 7% of the Moon is Illuminated
Mar 9
Waning Crescent
Mar 11
New
Mar 19
First Quarter
Mar 27
Full
Apr 3
Last Quarter

Hourly Weather History & Observations

Time (EET) Temp. Windchill Dew Point Humidity Pressure Visibility Wind Dir Wind Speed Gust Speed Precip Events Conditions
12:50 AM 28.4 °F 24.6 °F 23.0 °F 80% 30.06 in 5.0 mi ENE 3.5 mph - N/A   Mostly Cloudy
1:50 AM 28.4 °F - 24.8 °F 86% 30.04 in 3.7 mi Variable 2.3 mph - N/A   Mostly Cloudy
2:00 AM 28 °F - 24 °F 79%  in 4 mi ESE 2.3 mph - -   Mist
2:50 AM 28.4 °F 23.3 °F 24.8 °F 86% 30.04 in 4.3 mi ESE 4.6 mph - N/A   Mostly Cloudy
3:50 AM 24.8 °F 20.5 °F 23.0 °F 93% 30.04 in 5.0 mi ESE 3.5 mph - N/A   Scattered Clouds
4:50 AM 24.8 °F 19.1 °F 21.2 °F 86% 30.01 in 4.3 mi NE 4.6 mph - N/A   Scattered Clouds
5:50 AM 24.8 °F 19.1 °F 21.2 °F 86% 30.01 in 4.3 mi NNE 4.6 mph - N/A   Scattered Clouds
6:50 AM 30.2 °F 24.3 °F 23.0 °F 75% 30.01 in 3.7 mi SSE 5.8 mph - N/A   Scattered Clouds
7:50 AM 33.8 °F 30.8 °F 24.8 °F 70% 29.98 in 3.7 mi NNW 3.5 mph - N/A   Scattered Clouds
8:00 AM 34 °F - 23 °F 53%  in 4 mi NNW 3.5 mph - -   Haze
8:50 AM 33.8 °F 28.6 °F 26.6 °F 75% 29.98 in 4.3 mi West 5.8 mph - N/A   Partly Cloudy
9:50 AM 35.6 °F 29.9 °F 23.0 °F 60% 29.98 in 4.3 mi WSW 6.9 mph - N/A   Partly Cloudy
10:50 AM 35.6 °F 30.7 °F 24.8 °F 65% 29.98 in 4.3 mi West 5.8 mph - N/A   Scattered Clouds
11:50 AM 37.4 °F 32.8 °F 26.6 °F 65% 29.98 in 4.3 mi West 5.8 mph - N/A   Scattered Clouds
12:50 PM 37.4 °F 32.8 °F 26.6 °F 65% 29.95 in 4.3 mi West 5.8 mph - N/A   Scattered Clouds
1:50 PM 39.2 °F 35.0 °F 28.4 °F 65% 29.95 in 4.3 mi West 5.8 mph - N/A   Partly Cloudy
2:00 PM 38 °F - 28 °F 55%  in 4 mi West 5.8 mph - -   Haze
2:50 PM 37.4 °F 32.8 °F 26.6 °F 65% 29.92 in 5.0 mi West 5.8 mph - N/A   Scattered Clouds
3:50 PM 37.4 °F 33.8 °F 24.8 °F 60% 29.92 in 5.0 mi West 4.6 mph - N/A   Partly Cloudy
4:50 PM 35.6 °F 31.7 °F 23.0 °F 60% 29.95 in 6.2 mi SW 4.6 mph - N/A   Partly Cloudy
5:50 PM 33.8 °F 30.8 °F 26.6 °F 75% 29.95 in 4.3 mi SSE 3.5 mph - N/A   Scattered Clouds
6:50 PM 32.0 °F 28.7 °F 26.6 °F 80% 29.95 in 3.7 mi SE 3.5 mph - N/A   Scattered Clouds
7:50 PM 32.0 °F - 26.6 °F 80% 29.95 in 3.7 mi Calm Calm - N/A   Scattered Clouds
8:00 PM 31 °F - 26 °F 72%  in 4 mi Calm Calm - -   Mist
8:50 PM 30.2 °F 26.7 °F 26.6 °F 86% 29.95 in 3.7 mi NE 3.5 mph - N/A   Scattered Clouds
9:50 PM 30.2 °F - 26.6 °F 86% 29.95 in 3.7 mi ESE 2.3 mph - N/A   Scattered Clouds
10:28 PM 30.2 °F - 26.6 °F 86% 29.95 in 2.5 mi Variable 2.3 mph - N/A   Scattered Clouds
10:50 PM 28.4 °F - 24.8 °F 86% 29.95 in 3.7 mi Calm Calm - N/A   Scattered Clouds
11:50 PM 28.4 °F 24.6 °F 24.8 °F 86% 29.95 in 3.7 mi SSE 3.5 mph - N/A   Scattered Clouds